Location: Home
(42.5358°N, 72.7383°W)
Time: 12:24:26
(UTC-05:00)

Explorer 7 - Pass Details

Date: 30 November 2021
Orbit: 483 x 674 km, 50.3° (Epoch: 20 January)

Event Time Altitude Azimuth Distance (km) Brightness Sun altitude
Rises 13:07:27 0° 296° (WNW) 2,572 10.2 22.6°
Reaches altitude 10° 13:09:44 10° 289° (WNW) 1,674 9.4 22.4°
Maximum altitude 13:13:16 39° 220° (SW) 737 9.1 22.2°
Drops below altitude 10° 13:16:45 10° 150° (SSE) 1,657 9.9 21.9°
Sets 13:19:00 0° 142° (SE) 2,542 10.6 21.7°
